Location: Unspecified
(37.3333°N, 0.0000°E)
Time: 21:34:56
(UTC+00:00)

Tiangong 2 - Pass Details

Date: 01 June 2019
Orbit: 376 x 388 km, 42.8° (Epoch: 24 June)

Event Time Altitude Azimuth Distance (km) Brightness Sun altitude
Rises 20:11:22 0° 289° (WNW) 2,240 6.5 -10.2°
Reaches altitude 10° 20:13:30 10° 282° (WNW) 1,384 5.0 -10.5°
Maximum altitude 20:16:27 39° 211° (SSW) 574 1.8 -11.0°
Enters shadow 20:18:23 18° 148° (SSE) 1,008 2.6 -11.3°
